When you browse on this site, cookies collect data to enhance your experience and personalize the content and advertising you see.
Visit our Privacy Policy to learn more. By continuing to use the site, you agree to this use of cookies and data.
  • In Czech Republic
  • List of Countries
  • For 7 days
  • Water Temperature
  • Satellite Maps
  • Weather Map
  • Weather Widgets
  • user-avatar
    Login

    Hourly Weather Giumri

    Today, 19 May, Sunday

    Time Temperature Precipitation Wind Pressure Humidity
    00:00 +14°C° 0.5 mm 2 mps 633 mmHg 75%
    01:00 +14°C° 0.1 mm 2 mps 633 mmHg 73%
    02:00 +13°C° 0.1 mm 1 mps 632 mmHg 72%
    03:00 +13°C° 0 mm 1 mps 632 mmHg 63%
    04:00 +13°C° 0 mm 1 mps 632 mmHg 64%
    05:00 +14°C° 0 mm 1 mps 632 mmHg 65%
    06:00 +14°C° 0 mm 1 mps 632 mmHg 66%
    07:00 +16°C° 0 mm 2 mps 633 mmHg 59%
    08:00 +18°C° 0 mm 3 mps 633 mmHg 51%
    09:00 +20°C° 0 mm 4 mps 634 mmHg 46%
    10:00 +21°C° 0 mm 4 mps 634 mmHg 42%
    11:00 +23°C° 0 mm 5 mps 634 mmHg 38%
    12:00 +25°C° 0 mm 5 mps 634 mmHg 35%
    13:00 +24°C° 0 mm 6 mps 634 mmHg 34%
    14:00 +24°C° 0 mm 6 mps 634 mmHg 34%
    15:00 +24°C° 0 mm 6 mps 634 mmHg 34%
    16:00 +23°C° 0.1 mm 5 mps 634 mmHg 39%
    17:00 +22°C° 0.1 mm 4 mps 633 mmHg 45%
    18:00 +21°C° 0.1 mm 3 mps 633 mmHg 50%
    19:00 +19°C° 0.4 mm 3 mps 633 mmHg 55%
    20:00 +17°C° 0.4 mm 2 mps 633 mmHg 60%
    21:00 +15°C° 0.4 mm 1 mps 632 mmHg 65%
    22:00 +14°C° 0.5 mm 1 mps 632 mmHg 67%
    23:00 +14°C° 0.5 mm 1 mps 632 mmHg 70%

    Tomorrow, 20 May, Monday

    Time Temperature Precipitation Wind Pressure Humidity
    00:00 +14°C° 0.5 mm 1 mps 633 mmHg 73%
    01:00 +13°C° 0.2 mm 1 mps 632 mmHg 74%
    02:00 +12°C° 0.2 mm 1 mps 632 mmHg 75%
    03:00 +12°C° 0.2 mm 1 mps 632 mmHg 76%
    04:00 +12°C° 0.1 mm 1 mps 632 mmHg 75%
    05:00 +13°C° 0.1 mm 1 mps 632 mmHg 75%
    06:00 +13°C° 0.1 mm 1 mps 633 mmHg 74%
    07:00 +15°C° 0.1 mm 1 mps 633 mmHg 66%
    08:00 +18°C° 0.1 mm 1 mps 634 mmHg 58%
    09:00 +18°C° 0.1 mm 2 mps 634 mmHg 49%
    10:00 +19°C° 0.1 mm 2 mps 634 mmHg 46%
    11:00 +20°C° 0.1 mm 2 mps 634 mmHg 42%
    12:00 +21°C° 0.1 mm 3 mps 634 mmHg 38%
    13:00 +21°C° 0.3 mm 2 mps 634 mmHg 39%
    14:00 +21°C° 0.3 mm 2 mps 634 mmHg 39%
    15:00 +21°C° 0.3 mm 2 mps 634 mmHg 40%
    16:00 +20°C° 0.8 mm 2 mps 634 mmHg 49%
    17:00 +18°C° 0.8 mm 2 mps 634 mmHg 58%
    18:00 +16°C° 0.8 mm 2 mps 633 mmHg 67%
    19:00 +15°C° 0.4 mm 2 mps 634 mmHg 71%
    20:00 +14°C° 0.4 mm 2 mps 634 mmHg 75%
    21:00 +13°C° 0.4 mm 2 mps 634 mmHg 80%
    22:00 +12°C° 0.2 mm 2 mps 634 mmHg 82%
    23:00 +12°C° 0.2 mm 2 mps 634 mmHg 84%

    Day after tomorrow, 21 May, Tuesday

    Time Temperature Precipitation Wind Pressure Humidity
    00:00 +10°C° 0.2 mm 2 mps 634 mmHg 86%
    01:00 +10°C° 0.2 mm 2 mps 634 mmHg 87%
    02:00 +10°C° 0.2 mm 2 mps 634 mmHg 87%
    03:00 +9°C° 0.2 mm 2 mps 634 mmHg 87%
    04:00 +10°C° 0.1 mm 2 mps 634 mmHg 86%
    05:00 +10°C° 0.1 mm 2 mps 634 mmHg 85%
    06:00 +10°C° 0.1 mm 2 mps 635 mmHg 84%
    07:00 +13°C° 0.2 mm 2 mps 635 mmHg 79%
    08:00 +14°C° 0.2 mm 2 mps 636 mmHg 74%
    09:00 +15°C° 0.2 mm 2 mps 636 mmHg 69%
    10:00 +16°C° 0.3 mm 2 mps 637 mmHg 67%
    11:00 +17°C° 0.3 mm 3 mps 637 mmHg 65%
    12:00 +18°C° 0.3 mm 3 mps 637 mmHg 62%
    13:00 +18°C° 0.3 mm 3 mps 637 mmHg 62%
    14:00 +18°C° 0.3 mm 3 mps 637 mmHg 62%
    15:00 +18°C° 0.3 mm 4 mps 637 mmHg 63%
    16:00 +17°C° 0.2 mm 4 mps 636 mmHg 66%
    17:00 +15°C° 0.2 mm 4 mps 636 mmHg 69%
    18:00 +15°C° 0.2 mm 4 mps 636 mmHg 72%
    19:00 +13°C° 0.1 mm 3 mps 636 mmHg 78%
    20:00 +12°C° 0.1 mm 3 mps 636 mmHg 84%
    21:00 +10°C° 0.1 mm 2 mps 636 mmHg 89%
    22:00 +10°C° 0 mm 2 mps 636 mmHg 90%
    23:00 +9°C° 0 mm 2 mps 636 mmHg 91%

    22 May, Wednesday

    Time Temperature Precipitation Wind Pressure Humidity
    00:00 +9°C° 0 mm 2 mps 636 mmHg 91%
    01:00 +9°C° 0 mm 2 mps 636 mmHg 91%
    02:00 +9°C° 0 mm 2 mps 636 mmHg 91%
    03:00 +10°C° 0 mm 1 mps 635 mmHg 91%
    04:00 +10°C° 0 mm 1 mps 636 mmHg 89%
    05:00 +11°C° 0 mm 1 mps 636 mmHg 87%
    06:00 +11°C° 0 mm 1 mps 636 mmHg 85%
    07:00 +13°C° 0 mm 1 mps 636 mmHg 78%
    08:00 +15°C° 0 mm 2 mps 637 mmHg 71%
    09:00 +17°C° 0 mm 2 mps 637 mmHg 63%
    10:00 +17°C° 0 mm 2 mps 637 mmHg 60%
    11:00 +18°C° 0 mm 2 mps 637 mmHg 58%
    12:00 +19°C° 0 mm 2 mps 637 mmHg 55%
    13:00 +18°C° 0.6 mm 2 mps 636 mmHg 59%
    14:00 +18°C° 0.6 mm 2 mps 636 mmHg 63%
    15:00 +17°C° 0.6 mm 2 mps 635 mmHg 68%
    16:00 +16°C° 0.9 mm 2 mps 635 mmHg 71%
    17:00 +16°C° 0.9 mm 2 mps 635 mmHg 75%
    18:00 +15°C° 0.9 mm 2 mps 635 mmHg 79%
    19:00 +14°C° 0.1 mm 1 mps 635 mmHg 82%
    20:00 +13°C° 0.1 mm 1 mps 635 mmHg 85%
    21:00 +12°C° 0.1 mm 1 mps 635 mmHg 88%
    22:00 +11°C° 0 mm 1 mps 635 mmHg 88%
    23:00 +11°C° 0 mm 1 mps 634 mmHg 88%

    23 May, Thursday

    Time Temperature Precipitation Wind Pressure Humidity
    00:00 +10°C° 0 mm 1 mps 634 mmHg 88%
    01:00 +10°C° 0 mm 1 mps 634 mmHg 86%
    02:00 +9°C° 0 mm 1 mps 633 mmHg 85%
    03:00 +9°C° 0 mm 1 mps 633 mmHg 84%
    04:00 +9°C° 0 mm 1 mps 633 mmHg 80%
    05:00 +10°C° 0 mm 1 mps 634 mmHg 77%
    06:00 +11°C° 0 mm 1 mps 634 mmHg 73%
    07:00 +13°C° 0 mm 1 mps 634 mmHg 64%
    08:00 +15°C° 0 mm 2 mps 635 mmHg 55%
    09:00 +17°C° 0 mm 2 mps 635 mmHg 46%
    10:00 +18°C° 0 mm 2 mps 635 mmHg 42%
    11:00 +19°C° 0 mm 2 mps 636 mmHg 39%
    12:00 +20°C° 0 mm 3 mps 636 mmHg 35%
    13:00 +21°C° 0 mm 3 mps 635 mmHg 36%
    14:00 +21°C° 0 mm 4 mps 635 mmHg 36%
    15:00 +22°C° 0 mm 4 mps 635 mmHg 36%
    16:00 +21°C° 0 mm 4 mps 635 mmHg 40%
    17:00 +20°C° 0 mm 3 mps 635 mmHg 45%
    18:00 +19°C° 0 mm 3 mps 635 mmHg 49%
    19:00 +17°C° 0 mm 2 mps 634 mmHg 51%
    20:00 +15°C° 0 mm 2 mps 634 mmHg 53%
    21:00 +13°C° 0 mm 2 mps 634 mmHg 54%
    22:00 +12°C° 0 mm 2 mps 634 mmHg 56%
    23:00 +12°C° 0 mm 1 mps 634 mmHg 57%

    24 May, Friday

    Time Temperature Precipitation Wind Pressure Humidity
    00:00 +11°C° 0 mm 1 mps 634 mmHg 59%
    01:00 +11°C° 0 mm 1 mps 634 mmHg 58%
    02:00 +11°C° 0 mm 1 mps 634 mmHg 57%
    03:00 +10°C° 0 mm 1 mps 633 mmHg 56%
    04:00 +11°C° 0 mm 1 mps 634 mmHg 56%
    05:00 +12°C° 0 mm 1 mps 634 mmHg 56%
    06:00 +12°C° 0 mm 1 mps 634 mmHg 57%
    07:00 +15°C° 0 mm 1 mps 635 mmHg 51%
    08:00 +17°C° 0 mm 2 mps 636 mmHg 46%
    09:00 +19°C° 0 mm 2 mps 636 mmHg 41%
    10:00 +20°C° 0 mm 2 mps 636 mmHg 41%
    11:00 +21°C° 0 mm 3 mps 636 mmHg 41%
    12:00 +22°C° 0 mm 3 mps 637 mmHg 40%
    13:00 +22°C° 0.1 mm 4 mps 636 mmHg 42%
    14:00 +22°C° 0.1 mm 4 mps 636 mmHg 43%
    15:00 +22°C° 0.1 mm 4 mps 636 mmHg 45%
    16:00 +22°C° 0.2 mm 4 mps 636 mmHg 50%
    17:00 +21°C° 0.2 mm 3 mps 636 mmHg 55%
    18:00 +20°C° 0.2 mm 2 mps 636 mmHg 61%
    19:00 +18°C° 0.1 mm 2 mps 636 mmHg 64%
    20:00 +16°C° 0.1 mm 1 mps 636 mmHg 67%
    21:00 +15°C° 0.1 mm 1 mps 635 mmHg 70%
    22:00 +14°C° 0 mm 1 mps 635 mmHg 73%
    23:00 +13°C° 0 mm 1 mps 635 mmHg 76%
    Show more